Météo par heure à Juraszki

Ce jour, 20 Juin, Dimanche

Heure Température Précipitation Vent Pression Humidité
00:00 +19°C° 0 mm 3 m/s 751 mmHg 87%
01:00 +19°C° 0 mm 2 m/s 751 mmHg 89%
02:00 +19°C° 0 mm 2 m/s 751 mmHg 90%
03:00 +19°C° 0 mm 2 m/s 751 mmHg 91%
04:00 +19°C° 0 mm 2 m/s 751 mmHg 91%
05:00 +19°C° 0 mm 2 m/s 751 mmHg 91%
06:00 +20°C° 0 mm 2 m/s 751 mmHg 85%
07:00 +22°C° 0 mm 3 m/s 751 mmHg 79%
08:00 +25°C° 0 mm 3 m/s 751 mmHg 72%
09:00 +26°C° 0 mm 4 m/s 751 mmHg 68%
10:00 +28°C° 0 mm 4 m/s 751 mmHg 63%
11:00 +29°C° 0 mm 4 m/s 751 mmHg 58%
12:00 +30°C° 0 mm 4 m/s 751 mmHg 55%
13:00 +30°C° 0 mm 4 m/s 750 mmHg 52%
14:00 +32°C° 0 mm 4 m/s 750 mmHg 49%
15:00 +32°C° 0 mm 4 m/s 750 mmHg 52%
16:00 +32°C° 0 mm 4 m/s 749 mmHg 54%
17:00 +30°C° 0 mm 4 m/s 749 mmHg 57%
18:00 +29°C° 0.2 mm 3 m/s 749 mmHg 64%
19:00 +27°C° 0.2 mm 3 m/s 749 mmHg 71%
20:00 +26°C° 0.2 mm 2 m/s 749 mmHg 77%
21:00 +25°C° 0 mm 2 m/s 749 mmHg 80%
22:00 +24°C° 0 mm 2 m/s 749 mmHg 83%
23:00 +23°C° 0 mm 2 m/s 749 mmHg 85%

Demain, 21 Juin, Lundi

Heure Température Précipitation Vent Pression Humidité
00:00 +21°C° 0 mm 3 m/s 748 mmHg 87%
01:00 +21°C° 0 mm 3 m/s 748 mmHg 89%
02:00 +20°C° 0 mm 3 m/s 748 mmHg 91%
03:00 +20°C° 0 mm 3 m/s 748 mmHg 92%
04:00 +20°C° 0 mm 3 m/s 748 mmHg 92%
05:00 +19°C° 0 mm 3 m/s 748 mmHg 92%
06:00 +21°C° 0 mm 3 m/s 748 mmHg 86%
07:00 +22°C° 0 mm 3 m/s 748 mmHg 79%
08:00 +25°C° 0 mm 4 m/s 748 mmHg 73%
09:00 +26°C° 0 mm 4 m/s 748 mmHg 67%
10:00 +27°C° 0 mm 5 m/s 748 mmHg 61%
11:00 +28°C° 0 mm 5 m/s 748 mmHg 55%
12:00 +29°C° 0 mm 5 m/s 748 mmHg 55%
13:00 +29°C° 0 mm 5 m/s 747 mmHg 55%
14:00 +30°C° 0 mm 5 m/s 747 mmHg 54%
15:00 +29°C° 0.3 mm 5 m/s 747 mmHg 58%
16:00 +28°C° 0.3 mm 5 m/s 747 mmHg 63%
17:00 +28°C° 0.3 mm 4 m/s 747 mmHg 67%
18:00 +27°C° 0.1 mm 4 m/s 747 mmHg 71%
19:00 +26°C° 0.1 mm 3 m/s 746 mmHg 75%
20:00 +25°C° 0.1 mm 3 m/s 746 mmHg 79%
21:00 +24°C° 0 mm 3 m/s 746 mmHg 82%
22:00 +22°C° 0 mm 3 m/s 746 mmHg 85%
23:00 +21°C° 0 mm 3 m/s 746 mmHg 88%

Après-demain, 22 Juin, Mardi

Heure Température Précipitation Vent Pression Humidité
00:00 +20°C° 0 mm 3 m/s 746 mmHg 89%
01:00 +20°C° 0 mm 2 m/s 746 mmHg 91%
02:00 +20°C° 0 mm 2 m/s 746 mmHg 92%
03:00 +19°C° 0 mm 2 m/s 746 mmHg 93%
04:00 +19°C° 0 mm 2 m/s 746 mmHg 93%
05:00 +19°C° 0 mm 3 m/s 746 mmHg 94%
06:00 +21°C° 0 mm 3 m/s 746 mmHg 87%
07:00 +24°C° 0 mm 3 m/s 747 mmHg 81%
08:00 +26°C° 0 mm 4 m/s 747 mmHg 74%
09:00 +27°C° 0 mm 4 m/s 747 mmHg 69%
10:00 +28°C° 0 mm 4 m/s 747 mmHg 63%
11:00 +29°C° 0 mm 4 m/s 747 mmHg 58%
12:00 +30°C° 0 mm 4 m/s 747 mmHg 56%
13:00 +30°C° 0 mm 4 m/s 747 mmHg 54%
14:00 +32°C° 0 mm 5 m/s 747 mmHg 52%
15:00 +32°C° 0.1 mm 4 m/s 747 mmHg 53%
16:00 +31°C° 0.1 mm 3 m/s 747 mmHg 55%
17:00 +30°C° 0.1 mm 3 m/s 747 mmHg 57%
18:00 +29°C° 0.2 mm 2 m/s 747 mmHg 62%
19:00 +28°C° 0.2 mm 2 m/s 747 mmHg 68%
20:00 +27°C° 0.2 mm 1 m/s 747 mmHg 73%
21:00 +26°C° 0.1 mm 2 m/s 747 mmHg 76%
22:00 +25°C° 0.1 mm 2 m/s 748 mmHg 79%
23:00 +24°C° 0.1 mm 2 m/s 748 mmHg 81%

23 Juin, Mercredi

Heure Température Précipitation Vent Pression Humidité
00:00 +23°C° 0 mm 2 m/s 748 mmHg 83%
01:00 +23°C° 0 mm 2 m/s 748 mmHg 85%
02:00 +21°C° 0 mm 2 m/s 748 mmHg 87%
03:00 +21°C° 0 mm 2 m/s 748 mmHg 88%
04:00 +21°C° 0 mm 2 m/s 748 mmHg 89%
05:00 +21°C° 0 mm 2 m/s 748 mmHg 89%
06:00 +24°C° 0 mm 2 m/s 748 mmHg 83%
07:00 +25°C° 0 mm 2 m/s 749 mmHg 77%
08:00 +27°C° 0 mm 3 m/s 749 mmHg 72%
09:00 +29°C° 0 mm 3 m/s 749 mmHg 66%
10:00 +30°C° 0 mm 3 m/s 749 mmHg 61%
11:00 +31°C° 0 mm 3 m/s 749 mmHg 56%
12:00 +33°C° 0 mm 3 m/s 749 mmHg 53%
13:00 +33°C° 0 mm 4 m/s 749 mmHg 50%
14:00 +34°C° 0 mm 4 m/s 749 mmHg 47%
15:00 +34°C° 0 mm 3 m/s 749 mmHg 51%
16:00 +33°C° 0 mm 3 m/s 749 mmHg 54%
17:00 +31°C° 0 mm 3 m/s 748 mmHg 58%
18:00 +30°C° 0.1 mm 3 m/s 749 mmHg 63%
19:00 +29°C° 0.1 mm 2 m/s 749 mmHg 69%
20:00 +28°C° 0.1 mm 2 m/s 749 mmHg 74%
21:00 +26°C° 0.9 mm 2 m/s 749 mmHg 80%
22:00 +24°C° 0.9 mm 2 m/s 749 mmHg 86%
23:00 +23°C° 0.9 mm 2 m/s 750 mmHg 92%

24 Juin, Jeudi

Heure Température Précipitation Vent Pression Humidité
00:00 +22°C° 0.4 mm 1 m/s 750 mmHg 92%
01:00 +22°C° 0.4 mm 1 m/s 750 mmHg 93%
02:00 +22°C° 0.4 mm 1 m/s 750 mmHg 93%
03:00 +22°C° 0 mm 1 m/s 750 mmHg 93%
04:00 +21°C° 0 mm 1 m/s 750 mmHg 93%
05:00 +21°C° 0 mm 1 m/s 750 mmHg 94%
06:00 +21°C° 0 mm 2 m/s 750 mmHg 90%
07:00 +23°C° 0 mm 2 m/s 750 mmHg 86%
08:00 +24°C° 0 mm 2 m/s 750 mmHg 81%
09:00 +26°C° 0 mm 2 m/s 750 mmHg 75%
10:00 +27°C° 0 mm 2 m/s 750 mmHg 70%
11:00 +29°C° 0 mm 2 m/s 750 mmHg 64%
12:00 +29°C° 0 mm 3 m/s 750 mmHg 61%
13:00 +30°C° 0 mm 3 m/s 750 mmHg 58%
14:00 +31°C° 0 mm 3 m/s 750 mmHg 56%
15:00 +30°C° 0 mm 3 m/s 750 mmHg 56%
16:00 +30°C° 0 mm 3 m/s 750 mmHg 56%
17:00 +30°C° 0 mm 2 m/s 749 mmHg 56%
18:00 +29°C° 0 mm 2 m/s 749 mmHg 62%
19:00 +27°C° 0 mm 2 m/s 749 mmHg 69%
20:00 +26°C° 0 mm 2 m/s 749 mmHg 75%
21:00 +25°C° 0 mm 2 m/s 749 mmHg 80%
22:00 +23°C° 0 mm 2 m/s 749 mmHg 85%
23:00 +21°C° 0 mm 3 m/s 749 mmHg 89%

25 Juin, Vendredi

Heure Température Précipitation Vent Pression Humidité
00:00 +21°C° 0.7 mm 2 m/s 749 mmHg 92%
01:00 +20°C° 0.7 mm 2 m/s 750 mmHg 94%
02:00 +19°C° 0.7 mm 2 m/s 750 mmHg 97%
03:00 +19°C° 0.8 mm 2 m/s 749 mmHg 97%
04:00 +19°C° 0.8 mm 2 m/s 749 mmHg 96%
05:00 +18°C° 0.8 mm 2 m/s 749 mmHg 96%
06:00 +19°C° 0 mm 2 m/s 750 mmHg 91%
07:00 +20°C° 0 mm 2 m/s 750 mmHg 85%
08:00 +21°C° 0 mm 2 m/s 750 mmHg 80%
09:00 +23°C° 0.3 mm 2 m/s 750 mmHg 76%
10:00 +24°C° 0.3 mm 2 m/s 750 mmHg 72%
11:00 +25°C° 0.3 mm 2 m/s 750 mmHg 68%
12:00 +26°C° 0.1 mm 3 m/s 750 mmHg 66%
13:00 +26°C° 0.1 mm 3 m/s 750 mmHg 65%
14:00 +26°C° 0.1 mm 3 m/s 750 mmHg 63%
15:00 +26°C° 0 mm 3 m/s 750 mmHg 65%
16:00 +26°C° 0 mm 3 m/s 750 mmHg 66%
17:00 +26°C° 0 mm 3 m/s 749 mmHg 68%
18:00 +24°C° 0.1 mm 3 m/s 749 mmHg 73%
19:00 +22°C° 0.1 mm 3 m/s 749 mmHg 77%
20:00 +21°C° 0.1 mm 4 m/s 749 mmHg 82%
21:00 +20°C° 0.1 mm 4 m/s 749 mmHg 82%
22:00 +20°C° 0.1 mm 4 m/s 749 mmHg 82%
23:00 +19°C° 0.1 mm 3 m/s 749 mmHg 82%
Voir plus

Nous avons besoin de votre consentement

Meteoprog et ses fournisseurs de services peuvent stocker et accéder à des données personnelles telles que des cookies, des identifiants d'appareils ou d'autres technologies similaires sur votre appareil et traiter ces données pour personnaliser le contenu et les publicités, ainsi que pour fournir des fonctionnalités de médias sociaux et analyser le trafic.

  • Stocker et/ou accéder à des informations sur votre appareil

    Des cookies, des identifiants d'appareils ou d'autres informations peuvent être stockés ou accessibles sur votre appareil aux fins indiquées ci-dessus.

  • Annonces et contenus personnalisés, mesure des annonces et des contenus, connaissance de l'audience et développement de produits

    Les annonces et le contenu peuvent être personnalisés en fonction d'un profil. D'autres données peuvent être ajoutées pour mieux personnaliser les annonces et le contenu. Les performances des publicités et du contenu peuvent être mesurées. Il est possible d'obtenir des informations sur le public qui a vu les publicités et le contenu. Ces données peuvent être utilisées pour développer ou améliorer l'expérience de l'utilisateur, les systèmes et les logiciels.

En cliquant sur "J'accepte", vous autorisez l'utilisation de cookies, des identifiants d'appareils, des balises web ou d'autres technologies similaires. Vos paramètres peuvent être modifiés dans le navigateur de votre appareil.

Dans certains cas, des intérêts légitimes peuvent être invoqués plutôt qu'un consentement. Vous pouvez en savoir plus à ce sujet dans notre Politique de confidentialité et de cookies.